Langdon, ND

6:38 AM CDT on May 30, 2017 (GMT -0500)
Langdon

Weather History for KD55 - October, 2011

Change the Weather History Date:

Tuesday, October 25, 2011

  Actual Average (KDVL) Record (KDVL)
Temperature  
Mean Temperature 38 °F -  
Max Temperature 48 °F 51 °F 72 °F (1989)
Min Temperature 28 °F 29 °F 9 °F (1991)
Degree Days  
Heating Degree Days 27    
Moisture  
Dew Point 31 °F    
Average Humidity 80    
Maximum Humidity 100    
Minimum Humidity 53    
Precipitation  
Precipitation 0.05 in - - ()
Sea Level Pressure  
Sea Level Pressure 30.03 in    
Wind  
Wind Speed 3 mph (NE)    
Max Wind Speed 13 mph    
Max Gust Speed 17 mph    
Visibility 10 miles    
Events Rain    
Averages and records for this station are not official NWS values.
T = Trace of Precipitation, MM = Missing Value Source: NWS Daily Summary

Daily Weather History Graph

Daily Weather History Graph

Search for Another Location

Airport or City:

Trip Planner

Search our weather history database for the weather conditions in past years. The results will help you decide how hot, cold, wet, or windy it might be!

Date:

Astronomy

Oct. 25, 2011 Rise Set
Actual Time 8:08 AM CDT 6:25 PM CDT
Civil Twilight 7:36 AM CDT 6:58 PM CDT
Nautical Twilight 6:59 AM CDT 7:34 PM CDT
Astronomical Twilight 6:23 AM CDT 8:11 PM CDT
Moon 6:40 AM CDT (10/25) 5:27 PM CDT (10/25)
Length of Visible Light 11h 21m
Length of Day
10h 16m
Waning Crescent, 2% of the Moon is Illuminated
Oct 25
Waning Crescent
Oct 26
New
Nov 2
First Quarter
Nov 10
Full
Nov 18
Last Quarter

Hourly Weather History & Observations

Time (CDT) Temp. Windchill Dew Point Humidity Pressure Visibility Wind Dir Wind Speed Gust Speed Precip Events Conditions
12:15 AM 33.8 °F - 30.2 °F 87% 30.02 in 10.0 mi Calm Calm - N/A   Mostly Cloudy
12:35 AM 33.8 °F - 30.2 °F 87% 30.01 in 10.0 mi Calm Calm - N/A   Overcast
12:55 AM 32.0 °F - 26.6 °F 80% 30.01 in 10.0 mi Calm Calm - N/A   Scattered Clouds
1:15 AM 32.0 °F 28.7 °F 26.6 °F 80% 30.01 in 10.0 mi East 3.5 mph - N/A   Clear
1:35 AM 32.0 °F 28.7 °F 26.6 °F 80% 30.01 in 10.0 mi East 3.5 mph - N/A   Partly Cloudy
1:55 AM 32.0 °F - 26.6 °F 80% 30.01 in 10.0 mi Calm Calm - N/A   Scattered Clouds
2:15 AM 32.0 °F - 26.6 °F 80% 30.01 in 10.0 mi Calm Calm - N/A   Partly Cloudy
2:35 AM 30.2 °F - 26.6 °F 86% 30.01 in 10.0 mi Calm Calm - N/A   Clear
3:15 AM 28.4 °F - 26.6 °F 93% 30.01 in 10.0 mi Calm Calm - N/A   Mostly Cloudy
3:35 AM 30.2 °F - 26.6 °F 86% 30.01 in 10.0 mi Calm Calm - N/A   Overcast
3:55 AM 30.2 °F 26.7 °F 26.6 °F 86% 30.01 in 10.0 mi NNE 3.5 mph - N/A   Scattered Clouds
4:15 AM 28.4 °F 24.6 °F 26.6 °F 93% 30.00 in 10.0 mi NNE 3.5 mph - N/A   Clear
4:35 AM 28.4 °F 24.6 °F 26.6 °F 93% 30.00 in 10.0 mi NE 3.5 mph - N/A   Clear
4:55 AM 32.0 °F 28.7 °F 32.0 °F 100% 30.00 in 10.0 mi NNE 3.5 mph - N/A   Scattered Clouds
5:15 AM 32.0 °F 28.7 °F 28.4 °F 87% 30.01 in 10.0 mi NE 3.5 mph - N/A   Overcast
5:35 AM 32.0 °F - 28.4 °F 87% 30.01 in 10.0 mi Calm Calm - N/A   Overcast
5:55 AM 32.0 °F - 26.6 °F 80% 30.01 in 10.0 mi Calm Calm - N/A   Overcast
6:15 AM 32.0 °F 28.7 °F 24.8 °F 75% 30.02 in 10.0 mi SE 3.5 mph - N/A   Overcast
6:35 AM 32.0 °F 27.5 °F 24.8 °F 75% 30.02 in 10.0 mi ESE 4.6 mph - N/A   Overcast
6:55 AM 32.0 °F 28.7 °F 26.6 °F 80% 30.02 in 10.0 mi ESE 3.5 mph - N/A   Overcast
7:35 AM 32.0 °F - 26.6 °F 80% 30.02 in 10.0 mi Calm Calm - N/A   Scattered Clouds
7:55 AM 32.0 °F - 26.6 °F 80% 30.02 in 10.0 mi Calm Calm - N/A   Mostly Cloudy
8:15 AM 32.0 °F - 24.8 °F 75% 30.02 in 10.0 mi Calm Calm - N/A   Overcast
8:35 AM 32.0 °F 28.7 °F 26.6 °F 80% 30.03 in 10.0 mi NNE 3.5 mph - N/A   Overcast
8:55 AM 32.0 °F - 30.2 °F 93% 30.03 in 10.0 mi Calm Calm - N/A   Overcast
9:15 AM 35.6 °F - 32.0 °F 87% 30.03 in 10.0 mi Calm Calm - N/A   Overcast
9:35 AM 37.4 °F - 32.0 °F 81% 30.03 in 10.0 mi Calm Calm - N/A   Overcast
9:55 AM 37.4 °F - 32.0 °F 81% 30.04 in 10.0 mi Calm Calm - N/A   Overcast
10:15 AM 39.2 °F - 33.8 °F 81% 30.04 in 10.0 mi Calm Calm - N/A   Mostly Cloudy
10:35 AM 39.2 °F - 32.0 °F 75% 30.04 in 10.0 mi Calm Calm - N/A   Scattered Clouds
10:55 AM 42.8 °F - 32.0 °F 66% 30.04 in 10.0 mi Calm Calm - N/A   Mostly Cloudy
11:35 AM 46.4 °F - 32.0 °F 57% 30.04 in 10.0 mi Calm Calm - N/A   Overcast
11:55 AM 46.4 °F 45.2 °F 30.2 °F 53% 30.04 in 10.0 mi ENE 3.5 mph - N/A   Overcast
12:15 PM 46.4 °F - 32.0 °F 57% 30.04 in 10.0 mi Calm Calm - N/A   Overcast
12:35 PM 48.2 °F - 32.0 °F 54% 30.03 in 10.0 mi Calm Calm - N/A   Overcast
12:55 PM 48.2 °F - 32.0 °F 54% 30.03 in 10.0 mi East 3.5 mph - N/A   Mostly Cloudy
1:35 PM 48.2 °F - 32.0 °F 54% 30.02 in 8.0 mi Calm Calm - N/A   Overcast
2:15 PM 48.2 °F - 32.0 °F 54% 30.02 in 10.0 mi Calm Calm - N/A   Overcast
2:35 PM 48.2 °F - 32.0 °F 54% 30.02 in 10.0 mi NNE 3.5 mph - N/A   Overcast
2:55 PM 44.6 °F 38.4 °F 32.0 °F 61% 30.02 in 10.0 mi NNW 12.7 mph - N/A   Overcast
3:35 PM 41.0 °F 35.2 °F 35.6 °F 81% 30.03 in 3.0 mi NNW 9.2 mph - 0.03 in Rain Light Rain
3:55 PM 41.0 °F 33.9 °F 37.4 °F 87% 30.03 in 9.0 mi North 12.7 mph 16.1 mph 0.03 in Rain Light Rain
4:15 PM 41.0 °F 35.2 °F 35.6 °F 81% 30.04 in 10.0 mi NNE 9.2 mph - N/A   Overcast
4:35 PM 41.0 °F 35.2 °F 35.6 °F 81% 30.04 in 10.0 mi NNE 9.2 mph - N/A   Overcast
4:55 PM 41.0 °F 34.3 °F 35.6 °F 81% 30.04 in 5.0 mi ENE 11.5 mph 17.3 mph N/A Rain Light Rain
5:15 PM 39.2 °F 31.6 °F 35.6 °F 87% 30.04 in 8.0 mi NE 12.7 mph - N/A Rain Light Rain
5:35 PM 39.2 °F 33.0 °F 35.6 °F 87% 30.04 in 10.0 mi ENE 9.2 mph - N/A   Overcast
6:15 PM 39.2 °F 31.6 °F 35.6 °F 87% 30.04 in 4.0 mi ENE 12.7 mph - N/A Rain Light Rain
6:35 PM 39.2 °F 35.0 °F 35.6 °F 87% 30.05 in 8.0 mi ENE 5.8 mph - N/A Rain Light Rain
6:55 PM 39.2 °F 33.0 °F 33.8 °F 81% 30.06 in 10.0 mi NNE 9.2 mph - 0.01 in Rain Light Rain
7:15 PM 39.2 °F 35.0 °F 35.6 °F 87% 30.07 in 10.0 mi NNE 5.8 mph - N/A Rain Light Rain
7:35 PM 39.2 °F 33.6 °F 35.6 °F 87% 30.08 in 9.0 mi North 8.1 mph - N/A Rain Light Rain
8:15 PM 39.2 °F 34.2 °F 35.6 °F 87% 30.09 in 9.0 mi NNE 6.9 mph - N/A Rain Light Rain
8:35 PM 37.4 °F 32.1 °F 35.6 °F 93% 30.09 in 9.0 mi North 6.9 mph - N/A Rain Light Rain
8:55 PM 37.4 °F 31.4 °F 35.6 °F 93% 30.09 in 10.0 mi NNE 8.1 mph - 0.01 in Rain Light Rain
9:15 PM 37.4 °F 30.8 °F 35.6 °F 93% 30.09 in 9.0 mi North 9.2 mph - N/A Rain Light Rain
9:35 PM 37.4 °F 31.4 °F 35.6 °F 93% 30.10 in 10.0 mi North 8.1 mph - N/A   Overcast
9:55 PM 37.4 °F 32.1 °F 35.6 °F 93% 30.10 in 10.0 mi NNW 6.9 mph - N/A Rain Light Rain
10:15 PM 37.4 °F 32.1 °F 37.4 °F 100% 30.10 in 10.0 mi NW 6.9 mph - N/A   Overcast
10:35 PM 37.4 °F 32.1 °F 37.4 °F 100% 30.10 in 10.0 mi NW 6.9 mph - N/A   Mostly Cloudy
10:55 PM 37.4 °F 31.4 °F 37.4 °F 100% 30.10 in 10.0 mi NW 8.1 mph - N/A   Partly Cloudy
11:15 PM 37.4 °F 30.8 °F 35.6 °F 93% 30.10 in 10.0 mi NW 9.2 mph - N/A   Clear
11:35 PM 35.6 °F 29.9 °F 35.6 °F 100% 30.10 in 10.0 mi NW 6.9 mph - N/A   Clear
11:55 PM 35.6 °F 29.2 °F 35.6 °F 100% 30.10 in 10.0 mi NW 8.1 mph - N/A   Clear